Location: Unspecified
(0.0000°N, 0.0000°E)
Time: 12:10:37
(UTC+00:00)

Envisat - Pass Details

Date: 08 January 2018
Orbit: 764 x 766 km, 98.2° (Epoch: 25 June)

Event Time Altitude Azimuth Distance (km) Brightness Sun altitude
Rises 20:51:16 0° 193° (SSW) 3,230 6.7 -37.5°
Reaches altitude 10° 20:54:03 10° 208° (SSW) 2,302 6.0 -38.1°
Enters shadow 20:57:35 22° 252° (WSW) 1,635 5.2 -38.9°
